Location: Franzen
(48.6167°N, 15.3833°E)
Time: 09:17:42
(UTC+00:00)

Meteor 1-4 Rocket - Pass Details

Date: 22 April 2021
Orbit: 448 x 498 km, 81.2° (Epoch: 16 May)

Event Time Altitude Azimuth Distance (km) Brightness Sun altitude
Exits shadow 20:50:31 29° 253° (WSW) 862 3.9 -22.8°
Maximum altitude 20:51:28 35° 288° (WNW) 762 3.9 -22.9°
Drops below altitude 10° 20:54:46 10° 356° (N) 1,630 6.1 -23.2°
Sets 20:57:00 0° 5° (N) 2,521 7.0 -23.4°
